Location: Unspecified
(62.4500°N, 0.0000°E)
Time: 16:18:28
(UTC+00:00)

N. Korean satellite - Visible Passes

Search period start: 19 October 2019 00:00
Search period end: 29 October 2019 00:00
Orbit: 455 x 508 km, 97.2° (Epoch: 19 October)

Date Brightness Start Highest point End Pass type
(mag) Time Alt. Az. Time Alt. Az. Time Alt. Az.
19 Oct 9.6 05:10:37 10° NE 05:13:23 21° E 05:16:11 10° SE visible
19 Oct 8.7 17:29:59 10° SSW 17:33:06 31° W 17:36:17 10° NNW visible
20 Oct 10.2 04:45:55 10° NE 04:47:48 14° E 04:49:42 10° ESE visible
21 Oct 7.9 05:53:00 10° NNE 05:56:28 45° E 05:59:59 10° S visible
21 Oct 10.0 18:14:15 10° WSW 18:16:18 15° W 18:18:22 10° NW visible
22 Oct 9.0 05:27:51 10° NNE 05:31:01 28° E 05:34:13 10° SSE visible
22 Oct 9.4 17:47:53 10° SW 17:50:43 23° W 17:53:35 10° NW visible
23 Oct 9.8 05:02:53 10° NE 05:05:29 19° E 05:08:07 10° SE visible
23 Oct 8.4 17:21:58 10° SSW 17:25:12 36° W 17:28:31 10° NNW visible
24 Oct 10.3 04:38:22 10° ENE 04:39:53 12° E 04:41:24 10° ESE visible
24 Oct 7.2 06:10:24 10° NNE 06:14:00 64° ESE 06:17:39 10° S visible
24 Oct 7.2 16:56:20 10° S 16:59:46 60° WSW 17:03:18 10° NNW visible
24 Oct 10.4 18:33:00 10° W 18:33:59 11° W 18:34:57 10° WNW visible
25 Oct 8.2 05:45:09 10° NNE 05:48:36 39° E 05:52:04 10° S visible
25 Oct 9.9 18:05:58 10° SW 18:08:20 17° W 18:10:45 10° NW visible
26 Oct 9.2 05:20:01 10° NE 05:23:07 25° E 05:26:12 10° SSE visible
26 Oct 9.1 17:39:46 10° SSW 17:42:45 26° W 17:45:50 10° NW visible
27 Oct 9.9 04:55:08 10° NE 04:57:33 17° E 04:59:58 10° SE visible
27 Oct 6.6 06:27:48 10° NNE 06:31:29 90° SW 06:35:11 10° SSW visible
27 Oct 8.0 17:13:56 10° S 17:17:16 42° W 17:20:42 10° NNW visible
28 Oct 10.4 04:30:58 10° ENE 04:31:54 11° E 04:32:50 10° E visible
28 Oct 7.5 06:02:29 10° NNE 06:06:07 55° ESE 06:09:45 10° S visible
28 Oct 6.9 16:48:21 10° S 16:51:51 71° WSW 16:55:26 10° NNW visible
28 Oct 10.2 18:24:20 10° WSW 18:25:59 13° W 18:27:38 10° NW visible
